Regional Weather Roundup
Issued by NWS

Home | Current Version | Previous Version | Graphics & Text | Print | Product List | Glossary On
Versions: 1 2 3 4 5 6 7 8 9 10 11 12 13 14 15 16 17 18 19 20 21 22 23 24 25 26 27 28 29 30 31 32 33 34 35 36 37 38 39 40 41 42 43 44 45 46 47 48 49 50
000
ASUS43 KLMK 211202
RWRKY
KENTUCKY REGIONAL WEATHER ROUNDUP
NATIONAL WEATHER SERVICE LOUISVILLE KY
800 AM EDT FRI JUL 21 2017

NOTE "FAIR" INDICATES FEW OR NO CLOUDS BELOW 12,000 FEET
WITH NO SIGNIFICANT WEATHER AND/OR OBSTRUCTIONS TO VISIBILITY.

KYZ001>023-026-027-061>063-070>075-211300-
WESTERN AND SOUTH CENTRAL KENTUCKY

CITY           SKY/WX    TMP DP  RH WIND       PRES   REMARKS
PADUCAH        SUNNY     79  74  84 SW5       30.02R
HENDERSON      CLOUDY    76  74  93 S3        30.02R
OWENSBORO      CLOUDY    77  74  90 S5        30.03R FOG
HOPKINSVILLE   SUNNY     78  74  86 S3        30.05R
BOWLING GREEN  CLOUDY    78  75  90 SW3       30.06R
GLASGOW        NOT AVBL
$$

KYZ024-025-028>034-038-045-046-053-211300-
NORTH CENTRAL KENTUCKY

CITY           SKY/WX    TMP DP  RH WIND       PRES   REMARKS
LOUISVILLE/SDF CLOUDY    81  74  79 SW6       30.03R HAZE
LOUISVILLE/LOU CLOUDY    80  76  87 S3        30.04R
FORT KNOX      MOSUNNY   77  74  91 SW5       30.04R
$$

KYZ035>037-039>044-047>052-055>060-089>105-211300-
NORTHEAST KENTUCKY

CITY           SKY/WX    TMP DP  RH WIND       PRES   REMARKS
LEXINGTON      CLOUDY    77  72  84 SW7       30.06R HAZE
COVINGTON      CLOUDY    78  75  90 W12       30.04R
FRANKFORT      CLOUDY    77  72  84 CALM      30.04R HAZE
$$

KYZ054-064>069-076>088-106>120-211300-
SOUTHEAST KENTUCKY

CITY           SKY/WX    TMP DP  RH WIND       PRES   REMARKS
JACKSON        CLOUDY    75  71  87 CALM      30.09R
LONDON         CLOUDY    75  71  87 CALM      30.09R FOG
SOMERSET       CLOUDY    72  72 100 CALM      30.10R FOG
MIDDLESBORO    CLOUDY    71  71 100 CALM      30.12R FOG
MONTICELLO     MOSUNNY   73  72  96 W8        30.10R FOG
$$




USA.gov is the U.S. government's official web portal to all federal, state and local government web resources and services.